Location: *
(42.0175°N, 9.4056°E)
Time: 05:18:45
(UTC+00:00)

Cosmos 1833 Rocket - Pass Details

Date: 25 August 2019
Orbit: 834 x 839 km, 71.0° (Epoch: 17 September)

Event Time Altitude Azimuth Distance (km) Brightness Sun altitude
Rises 19:16:27 0° 183° (S) 3,374 5.6 -12.6°
Reaches altitude 10° 19:18:58 10° 176° (S) 2,444 4.8 -13.1°
Maximum altitude 19:24:14 43° 107° (ESE) 1,162 3.0 -13.9°
Drops below altitude 10° 19:29:32 10° 37° (NE) 2,458 5.0 -14.8°
Sets 19:32:04 0° 31° (NNE) 3,396 5.8 -15.2°
